Theta_e
333 334 336 336 335 335 336 335 334 333 332 331 331 330 330 333 341 344 344 340 334 333 334 333 333 333 332 332 332 332 333 333 332 330 330 331 331 331 331 331 331 331 331 331 331 330 330 331 331 331 331 331 330 330 330 330 331 331 331 331 331 330 329 329 328 327 325 323 322 321 320 320 321 323
334 334 335 336 335 336 336 336 335 334 333 332 331 332 331 331 335 339 342 341 334 331 333 333 333 332 331 331 332 332 332 333 332 331 331 332 332 332 331 331 332 332 332 332 331 331 331 331 331 331 331 331 331 331 331 331 331 331 331 331 331 331 330 329 329 329 328 328 327 326 326 326 326 326
336 334 334 334 335 336 336 336 336 335 334 333 332 333 333 333 333 332 334 337 334 331 332 333 333 332 332 332 332 332 332 332 332 332 332 332 332 332 332 332 332 332 332 332 332 332 331 331 331 331 331 331 331 331 331 332 332 332 332 331 331 331 330 330 330 329 329 329 328 328 328 328 327 327
337 335 333 333 335 336 336 336 336 335 335 335 334 334 334 333 334 332 331 332 334 333 333 333 332 331 331 331 331 331 331 330 331 331 331 331 331 332 332 331 331 330 330 331 332 332 332 331 331 330 330 330 330 330 330 331 331 331 331 331 331 331 330 330 330 330 329 329 328 328 328 327 327 326
338 337 335 333 335 336 337 336 336 335 335 335 335 334 334 333 333 333 332 332 333 333 333 332 331 332 332 331 330 330 331 331 332 332 331 330 330 330 330 329 328 327 328 329 330 330 330 330 330 329 329 329 329 329 330 330 330 330 330 330 330 330 330 330 330 330 329 329 328 328 327 327 326 326
338 337 336 334 334 335 336 336 336 336 334 335 335 334 334 334 333 333 334 334 334 334 333 332 332 332 332 331 331 331 332 332 332 332 332 331 331 330 330 328 326 325 326 327 328 329 329 329 329 329 329 329 330 330 330 330 330 330 330 329 329 329 329 329 330 330 330 329 329 328 328 327 327 327
338 337 336 335 334 334 335 336 337 336 336 335 335 333 333 334 334 334 334 335 335 335 334 333 333 333 332 332 332 333 333 333 333 333 332 332 333 332 331 329 327 326 325 326 328 328 328 328 328 328 329 329 329 329 330 330 330 330 329 329 329 328 329 329 329 329 329 329 329 328 328 328 328 328
338 338 336 335 335 334 335 336 336 336 336 335 334 334 334 334 335 334 334 334 335 334 334 334 334 332 332 333 333 334 334 333 333 333 332 333 333 332 332 331 330 328 327 326 327 327 327 327 328 328 329 329 328 327 327 327 327 327 327 328 328 328 328 328 328 328 328 328 328 328 328 328 328 328
338 338 337 336 336 336 335 336 336 336 336 335 334 334 334 334 335 335 334 334 334 334 335 334 334 333 332 333 333 334 333 333 332 332 331 331 332 332 332 331 331 329 328 327 327 327 327 327 328 328 328 327 325 324 323 322 322 323 325 326 327 327 327 326 325 326 326 327 327 328 327 327 327 327
338 338 337 337 337 336 336 336 336 336 336 335 335 334 334 334 335 335 335 334 334 334 334 334 334 333 332 333 333 334 334 334 333 332 330 330 331 332 332 331 330 329 328 327 327 326 326 326 326 325 323 322 321 319 319 318 319 320 321 322 323 324 325 326 327 327 327 327 328 327 327 326 326 326
338 337 337 337 337 336 336 335 335 335 336 335 335 334 335 334 334 335 335 334 334 334 333 334 333 333 333 333 334 334 334 333 332 332 331 331 331 331 331 330 329 328 328 327 327 326 325 324 323 322 320 320 319 318 317 317 317 317 318 318 319 320 322 324 325 325 325 325 325 324 323 323 323 323
338 338 337 337 337 337 336 336 336 335 335 335 335 335 335 334 335 335 335 335 335 334 334 334 333 333 334 334 334 334 334 333 332 331 331 331 331 330 330 329 329 328 327 327 326 325 324 323 321 320 319 318 318 318 318 318 318 319 319 319 319 320 320 321 322 322 322 322 322 322 322 322 323 323
339 338 338 337 337 336 336 336 337 336 335 335 335 335 334 334 335 335 334 334 335 334 334 334 334 334 334 334 334 334 333 331 331 331 331 331 330 330 330 329 329 328 328 328 327 325 323 322 320 318 318 318 318 319 319 319 319 320 320 320 320 321 321 321 322 322 322 322 322 322 322 323 323 323
339 338 338 338 336 336 336 336 337 337 336 335 335 334 334 334 335 334 334 334 335 335 335 334 334 334 333 333 333 332 331 330 330 331 331 331 330 330 329 329 328 328 328 328 326 324 321 320 318 318 318 319 319 319 319 320 320 320 320 320 320 320 321 321 322 322 322 321 321 320 319 319 320 320
339 339 339 338 337 336 336 336 336 336 336 335 335 334 334 335 335 334 334 334 335 335 335 334 334 333 332 332 332 331 331 331 331 331 331 330 330 329 328 328 328 328 328 327 325 322 320 319 318 319 319 319 319 319 319 319 320 320 320 319 319 319 319 319 319 320 320 319 319 318 317 316 316 316
339 339 339 338 337 337 337 337 336 336 335 335 335 335 335 335 334 333 333 333 334 334 334 334 332 332 331 331 331 331 331 331 331 331 331 330 330 329 328 328 328 329 327 325 323 321 319 319 319 319 319 320 320 320 319 319 319 319 319 319 318 318 317 317 317 317 317 316 316 316 316 316 315 315
339 339 339 339 338 338 338 338 337 336 335 335 335 335 335 334 333 333 332 332 332 332 332 332 332 332 332 332 332 332 331 331 331 331 331 331 330 329 329 329 329 327 324 322 321 320 319 319 320 320 320 320 320 320 319 319 319 319 318 318 317 317 316 315 315 314 314 314 314 314 314 314 314 314
340 340 339 338 338 338 338 338 338 337 336 335 335 335 334 333 332 332 332 331 331 331 332 333 333 332 332 332 332 331 331 331 331 331 331 331 330 329 329 327 325 323 320 320 320 319 320 320 320 320 320 319 319 318 318 318 317 316 315 314 313 313 313 313 313 314 315 315 316 317 317 317 317 316
342 340 339 338 338 338 338 338 338 337 336 335 335 335 333 331 330 330 331 331 331 332 333 333 332 332 331 331 331 330 329 329 329 328 328 328 328 327 325 323 321 320 320 320 319 319 320 320 320 319 318 317 316 315 315 313 312 310 310 311 312 313 314 315 316 316 317 318 318 319 319 319 319 318
342 340 339 338 338 337 337 337 337 337 336 335 335 333 330 327 328 330 331 331 331 331 331 331 331 331 330 329 328 327 326 325 324 324 324 323 323 322 321 320 320 320 320 319 319 319 320 319 318 317 314 313 312 311 310 309 309 311 313 314 315 315 316 316 317 317 318 318 319 319 319 319 319 318
342 341 339 338 337 337 336 336 337 337 336 335 334 331 327 327 328 330 330 330 330 330 330 330 330 329 328 327 326 325 324 324 322 321 320 320 320 321 320 320 319 318 317 316 317 319 318 316 314 313 312 310 310 309 309 310 312 314 314 314 315 315 316 316 317 317 318 318 318 319 319 319 319 319
342 340 339 338 337 336 336 336 337 337 335 334 332 328 326 328 329 328 329 330 329 330 330 330 329 327 327 326 325 324 323 322 320 319 319 319 320 320 319 318 317 315 314 314 316 317 316 313 312 312 311 311 310 309 310 311 312 312 313 314 315 315 315 316 316 316 317 317 318 318 318 318 319 319
341 339 338 338 337 336 336 336 337 336 334 332 329 326 326 328 328 327 327 328 329 330 331 330 328 328 327 325 323 321 320 319 318 318 319 318 317 316 315 315 315 315 314 313 314 315 314 312 312 311 312 312 311 310 310 310 310 311 313 314 314 314 315 315 316 316 317 317 317 318 318 317 317 318
340 339 338 338 337 337 337 337 337 336 332 329 326 324 326 327 327 327 327 329 330 330 330 330 328 327 324 321 319 318 317 317 318 318 317 316 314 314 312 311 312 313 312 311 311 312 313 312 312 311 312 313 312 310 310 310 310 311 313 314 313 314 314 315 315 316 316 317 317 317 316 315 315 316
340 338 338 338 337 337 337 336 336 333 328 325 324 324 325 326 326 327 329 330 330 330 330 328 325 321 318 316 316 317 317 317 317 316 315 315 313 312 311 310 310 311 311 309 308 310 312 312 312 311 312 311 311 310 310 310 310 310 311 312 312 313 314 315 315 316 317 317 317 316 316 315 314 315
339 338 338 337 337 337 336 335 332 328 325 324 325 325 326 326 327 329 330 330 330 330 328 323 318 316 315 316 317 319 318 317 316 315 315 314 313 311 309 309 310 309 309 308 307 308 311 311 311 311 311 311 310 310 310 310 309 309 310 310 311 313 315 315 315 316 317 317 317 316 316 315 314 314
339 338 337 337 337 336 334 332 329 326 325 325 326 326 326 327 329 330 330 329 329 327 322 318 316 316 316 317 319 319 318 316 315 315 314 314 313 311 309 308 308 307 307 307 307 307 309 310 309 309 310 310 310 309 309 309 309 309 310 311 313 314 315 315 316 316 317 317 317 316 316 315 315 314
339 338 338 337 336 334 333 330 327 326 326 326 327 327 328 329 330 329 328 327 325 321 318 316 316 316 316 317 318 318 318 317 317 316 315 314 312 310 309 307 307 307 306 307 307 307 308 308 308 308 308 309 309 309 309 309 309 310 311 312 314 315 315 315 316 317 317 317 317 317 316 316 315 315
339 338 338 336 334 333 330 328 326 327 327 328 329 329 330 329 328 325 324 323 321 318 316 316 316 316 316 317 317 317 317 318 318 317 315 313 310 308 307 307 307 306 307 307 307 307 307 307 307 307 307 308 308 308 309 309 310 311 312 313 314 315 315 316 316 317 317 316 316 316 316 315 315 314
339 338 336 334 332 329 327 327 328 329 330 331 331 330 328 325 322 321 320 319 318 317 316 316 316 316 316 317 317 317 318 318 318 316 312 310 308 307 307 307 306 306 307 306 306 306 306 306 307 307 307 307 308 308 309 310 310 312 313 313 314 315 316 316 316 316 316 316 316 315 314 313 313 313
337 335 333 330 327 326 327 329 331 331 331 331 329 326 323 321 319 318 318 317 317 316 316 316 316 316 316 317 318 318 319 319 317 313 309 308 307 307 306 307 306 306 306 306 306 306 306 307 307 307 307 307 308 309 309 310 311 312 313 313 314 315 316 316 316 316 315 315 315 314 313 312 311 311
333 331 328 327 327 328 330 331 332 332 331 329 325 322 320 319 318 317 317 317 317 316 316 316 316 316 317 319 318 318 317 316 313 309 307 307 307 306 307 307 306 306 306 305 306 306 306 306 306 307 307 307 307 308 309 310 311 311 312 314 315 315 316 316 316 315 314 314 313 312 311 311 310 310
329 328 328 328 330 331 332 333 333 331 330 327 323 320 319 319 318 317 317 317 317 317 317 317 317 318 319 318 316 314 312 310 309 307 307 307 307 307 306 306 305 305 305 305 306 306 306 306 306 306 307 307 307 307 308 309 311 312 313 314 315 316 316 316 315 314 313 313 312 311 310 310 309 309
328 329 330 331 332 333 333 333 332 331 329 327 323 320 319 319 319 318 318 318 318 318 318 318 318 319 318 315 312 310 308 308 307 307 307 307 307 306 305 305 305 305 305 305 306 306 306 306 306 306 306 306 306 306 307 309 310 312 313 314 315 316 316 315 314 313 313 312 311 310 309 309 308 308
329 331 332 333 333 332 331 330 330 330 329 328 325 322 320 319 319 319 319 319 319 319 319 320 320 318 314 311 309 308 307 307 306 306 307 307 306 305 305 304 304 304 304 305 305 305 306 305 305 306 306 306 306 307 308 309 310 310 312 314 315 316 315 314 313 312 311 310 310 309 308 308 307 307
331 331 331 330 330 329 329 328 329 329 329 328 326 323 321 321 321 320 320 320 320 320 320 320 318 315 311 309 308 308 307 306 305 306 306 306 305 304 304 304 304 304 305 305 305 305 305 305 305 306 305 306 307 307 308 308 309 309 311 314 315 316 314 313 312 311 310 309 308 308 307 307 307 307
329 329 328 327 327 327 327 327 328 329 329 327 325 324 323 323 323 323 322 322 321 321 320 318 315 311 309 308 308 307 306 305 305 306 306 305 304 304 304 304 304 304 305 305 305 305 305 305 305 305 305 307 309 308 307 307 309 311 312 314 315 315 313 312 312 310 309 308 307 307 307 307 306 306
327 326 325 325 326 325 326 327 329 328 327 326 325 324 324 323 322 322 322 322 321 320 317 314 311 310 309 308 308 306 305 305 305 305 305 304 303 303 303 304 304 304 305 305 305 304 305 305 304 304 304 306 309 309 307 306 308 311 313 314 315 314 312 311 311 309 308 307 306 306 306 306 306 305
325 325 325 325 325 325 327 328 328 326 325 324 323 322 320 319 318 318 320 320 319 316 312 311 310 310 309 308 307 305 305 305 305 305 304 303 303 303 304 304 304 304 305 305 304 304 304 304 304 304 304 304 306 307 306 306 308 311 313 313 313 313 312 311 310 308 307 306 306 306 305 305 305 304
325 325 325 326 326 327 328 328 326 324 322 320 319 318 317 317 316 317 318 317 315 312 311 311 310 308 306 306 306 305 305 305 305 304 303 303 303 304 304 304 304 305 305 304 304 304 304 304 304 304 304 305 307 308 308 309 311 312 312 312 311 311 310 309 308 307 306 306 305 305 305 304 304 303
325 326 326 327 328 329 327 324 322 320 319 318 317 317 317 316 316 316 316 315 313 312 311 310 308 306 305 305 306 306 305 305 304 303 303 303 303 303 303 304 305 305 305 305 304 304 304 304 304 304 307 309 310 311 311 312 312 312 311 311 310 309 308 307 306 305 305 305 305 305 305 304 303 302
326 327 328 329 329 327 323 321 320 319 318 317 317 317 316 315 315 315 314 314 313 311 309 308 306 306 306 307 306 305 305 304 303 303 303 303 303 303 303 304 304 305 305 304 304 304 304 304 304 306 309 311 311 311 311 312 312 311 311 310 309 308 307 307 306 305 305 304 304 304 304 303 302 302
328 329 330 330 328 324 321 320 319 319 318 317 317 316 315 314 314 313 313 312 310 308 307 306 306 306 307 306 305 305 304 304 303 303 303 303 303 303 304 304 304 304 304 304 303 303 304 304 303 306 310 311 310 311 311 311 310 310 310 310 308 307 306 306 306 305 304 304 303 303 303 302 302 301
329 330 330 329 325 322 320 320 319 318 318 317 316 315 315 314 313 313 312 310 308 306 306 306 306 306 306 306 305 305 304 303 303 303 302 302 303 303 304 304 304 304 303 303 303 303 304 304 304 306 309 310 310 310 310 310 310 310 309 309 307 305 305 305 305 305 304 303 303 302 302 301 301 300
329 329 330 328 325 322 321 320 319 318 317 316 316 315 315 314 313 312 310 308 306 305 305 305 304 305 305 306 305 304 303 303 303 303 302 302 303 304 304 304 304 303 303 302 302 303 304 304 304 305 308 310 310 309 309 309 309 309 308 307 306 304 304 304 304 304 303 303 302 302 301 301 300 299
Wind_Speed
21 23 23 21 18 15 13 13 12 12 14 15 15 16 16 13 6 2 2 4 7 12 14 13 11 10 9 8 9 10 11 11 13 14 15 14 15 15 16 17 18 18 18 18 17 17 17 17 17 17 17 17 17 17 17 17 17 17 17 17 17 18 18 18 17 17 18 18 18 19 20 20 19 19
21 22 23 22 19 16 15 14 12 11 12 14 16 15 16 16 11 7 4 5 8 11 13 13 10 7 6 5 5 6 7 8 10 12 13 14 14 14 14 15 16 17 19 19 19 19 19 19 19 19 19 19 18 18 17 17 17 17 17 17 17 17 17 18 19 19 19 19 19 20 20 20 21 21
22 23 24 23 21 18 16 15 15 13 12 13 15 15 15 15 13 12 7 3 6 9 10 11 9 7 7 6 6 7 7 8 8 10 12 12 12 11 12 13 14 16 17 18 19 19 19 19 19 19 19 20 19 19 19 18 18 18 18 18 18 18 18 18 19 20 21 21 22 22 22 22 21 21
24 24 24 25 23 19 17 17 17 15 14 15 15 15 15 14 13 12 10 6 6 8 8 7 6 6 6 7 8 8 8 8 8 9 10 11 11 12 13 14 15 15 16 16 17 17 18 18 18 18 19 19 19 19 19 19 18 18 19 19 19 19 19 19 19 19 20 21 21 22 22 22 21 20
26 26 25 25 24 21 18 18 17 17 16 15 15 15 15 14 12 11 11 9 9 9 9 8 7 7 7 8 9 9 9 8 8 9 10 11 12 13 13 14 14 14 15 16 16 17 17 17 18 18 19 19 19 19 19 19 18 19 19 19 20 20 20 20 20 20 20 20 21 21 21 21 21 20
28 27 26 25 24 23 21 18 17 17 17 16 16 16 15 14 13 12 12 11 10 10 11 10 10 9 9 10 10 10 10 9 9 11 11 12 12 12 13 14 14 13 13 15 16 17 17 18 18 18 18 19 19 18 18 19 19 19 20 20 21 21 21 22 22 22 22 21 21 21 21 22 22 22
30 28 27 26 24 23 22 19 17 17 18 18 17 17 17 16 15 14 14 13 12 11 11 11 11 11 11 12 12 11 11 11 12 13 14 13 13 13 14 15 15 13 14 14 15 17 17 17 18 19 19 19 19 18 19 19 20 20 20 21 21 21 21 22 22 22 23 23 22 22 22 22 22 22
32 31 30 28 26 23 22 21 18 17 18 19 18 17 17 18 17 16 15 15 14 13 12 12 12 12 12 13 12 12 13 14 14 15 15 16 16 15 14 15 15 14 15 16 16 16 17 17 18 18 18 19 20 21 22 23 23 22 22 21 21 21 22 22 23 23 23 23 23 23 23 23 22 22
33 32 32 31 28 25 24 23 21 19 18 18 18 18 18 19 18 17 17 16 16 15 15 15 14 13 14 15 15 14 14 16 16 16 17 18 18 17 16 15 15 14 15 17 17 17 17 17 18 17 18 19 20 21 22 23 24 24 23 22 21 22 22 22 23 23 23 23 23 23 22 22 23 22
33 33 32 32 30 28 26 26 25 23 21 20 20 20 19 18 18 18 18 17 16 16 16 17 17 17 17 17 17 16 15 16 16 17 19 20 19 17 16 16 15 14 15 17 17 17 16 16 17 17 18 20 21 22 22 23 23 24 24 24 23 23 23 23 23 23 22 22 21 22 23 24 25 25
34 34 32 32 31 30 29 28 26 24 22 22 22 21 19 19 19 18 18 17 16 16 17 18 19 20 19 19 19 18 15 14 15 17 19 21 19 16 16 16 16 16 17 17 16 16 16 16 17 19 20 21 21 21 21 21 21 21 22 22 23 23 24 24 25 25 25 24 24 24 24 24 24 24
36 34 33 32 32 32 31 29 27 24 22 22 23 22 19 19 19 17 17 16 15 16 17 19 21 20 20 19 19 19 15 14 15 16 16 18 18 17 17 17 17 18 18 18 17 16 17 18 20 22 21 19 18 17 17 17 17 16 16 17 17 18 19 20 21 21 22 22 21 21 21 21 21 21
35 34 33 32 30 30 31 30 27 24 23 22 23 22 20 20 19 17 16 15 15 16 18 20 20 19 20 21 21 19 16 15 17 17 15 16 18 18 18 18 17 17 19 19 18 17 17 20 21 21 19 16 16 16 15 15 16 16 16 16 16 17 17 17 17 17 17 17 17 17 17 17 18 18
33 32 32 31 29 29 30 29 26 25 23 22 22 21 20 20 19 16 15 14 15 16 17 19 19 17 19 23 22 18 16 16 17 17 16 17 18 17 18 17 16 17 19 18 17 18 19 20 20 18 17 17 16 16 16 16 17 17 17 16 17 17 18 18 18 18 17 18 17 16 15 15 16 17
31 30 30 29 28 28 29 28 25 25 24 23 22 21 19 19 18 16 15 15 15 16 17 19 19 17 19 23 21 16 16 17 17 17 16 17 18 17 14 13 14 17 18 15 16 20 21 20 18 17 17 18 17 17 17 17 17 18 18 18 18 18 18 18 18 19 19 19 19 19 19 19 20 21
30 29 29 28 28 29 30 27 25 25 25 23 21 20 18 17 16 15 15 14 15 16 17 18 18 17 18 20 19 16 16 17 16 16 15 16 17 17 14 13 15 17 17 15 16 21 21 18 17 17 17 18 17 17 17 17 17 18 19 20 20 20 21 21 21 21 22 23 23 24 25 26 27 28
32 32 30 29 28 28 28 26 25 25 24 22 20 18 17 16 15 15 14 13 14 16 15 16 17 17 16 17 18 17 15 15 15 15 15 16 16 16 16 17 17 17 17 17 17 18 18 17 16 17 18 17 15 15 15 16 17 19 21 23 24 25 25 26 26 27 27 27 27 27 28 29 29 30
35 34 32 31 29 26 24 25 26 25 24 21 20 18 17 16 16 14 13 13 15 15 14 15 17 17 16 16 17 16 14 15 15 15 16 16 16 15 16 17 18 17 18 17 14 12 15 16 17 19 18 15 15 16 17 20 22 25 26 26 25 24 24 24 25 25 25 25 24 24 24 25 25 25
35 34 32 31 29 25 25 26 27 26 24 21 19 18 17 16 15 13 12 13 13 12 11 12 15 17 16 15 14 14 13 12 12 11 12 12 13 15 15 16 17 17 16 14 10 9 13 15 16 18 18 17 19 22 24 26 27 25 23 20 19 18 19 19 20 20 21 21 21 21 21 21 22 22
33 31 30 29 27 25 26 28 27 26 24 21 19 17 16 15 14 12 12 12 11 10 10 13 15 16 14 11 10 9 8 7 7 7 9 10 11 13 14 14 16 15 13 13 10 10 12 12 13 18 20 21 23 25 26 24 21 17 16 16 17 18 18 18 19 19 19 19 20 20 20 21 22 22
30 29 29 29 26 24 28 29 27 26 23 20 18 16 15 14 13 12 11 10 9 10 11 12 12 10 8 6 6 6 6 8 9 10 12 13 12 12 10 9 10 11 13 14 11 10 11 12 14 19 22 22 22 23 22 18 15 15 17 19 19 19 19 18 18 19 20 20 20 20 21 21 22 23
28 28 28 27 23 24 29 29 26 24 22 19 17 16 14 13 12 11 10 8 8 9 10 9 8 7 6 8 9 10 11 12 12 13 14 12 10 9 7 7 9 10 13 14 10 8 12 14 15 18 20 19 20 21 18 16 17 19 20 20 20 20 20 20 21 21 22 23 23 22 21 21 21 22
25 25 26 25 24 26 29 27 24 22 20 18 16 14 13 12 11 11 10 8 8 8 8 7 8 9 11 13 14 14 13 13 12 11 9 6 5 5 6 8 8 7 8 11 10 10 14 16 17 17 14 11 14 18 17 17 21 22 21 21 22 21 22 23 24 25 25 26 25 24 22 21 21 22
24 24 25 26 26 27 27 24 21 20 18 16 15 13 12 12 12 11 10 9 9 8 7 7 9 12 14 14 13 12 10 8 6 5 3 3 5 6 8 10 9 7 8 11 12 13 16 16 17 19 15 9 10 17 20 21 22 21 20 21 23 23 23 25 26 27 28 27 26 25 23 22 22 23
25 25 26 28 28 26 23 21 20 19 18 15 13 12 12 12 12 10 9 8 8 6 7 9 11 12 11 10 7 6 4 2 2 3 4 6 8 9 10 11 10 12 13 12 12 15 17 17 18 21 19 14 13 18 23 24 24 21 20 22 24 23 24 26 28 29 29 29 28 26 25 24 25 26
24 24 26 28 27 23 20 19 19 18 16 13 11 11 11 11 11 9 8 7 6 6 8 9 8 7 6 4 2 2 1 2 4 6 7 8 9 11 12 11 11 13 15 13 13 16 18 18 19 20 19 17 16 19 20 21 23 24 22 22 23 24 25 27 28 29 30 30 29 28 28 28 29 29
24 23 25 27 24 21 19 19 19 16 13 11 11 10 10 10 9 9 8 6 6 6 7 6 4 4 3 2 2 2 3 5 7 9 9 10 12 13 13 12 12 14 15 14 15 17 17 18 18 18 19 19 18 16 16 18 22 26 25 24 24 24 25 27 28 29 29 30 30 30 31 32 32 32
23 24 26 25 22 20 20 19 16 13 11 10 10 9 9 9 9 8 7 6 6 6 5 4 4 3 3 4 5 6 7 8 10 12 12 13 14 14 13 12 12 13 14 14 14 15 15 16 16 17 19 19 17 15 15 18 23 26 26 25 25 25 27 28 28 28 29 30 31 32 32 33 33 33
23 24 25 22 20 20 18 15 13 11 10 10 10 9 10 10 10 8 7 7 7 7 7 7 6 5 5 6 8 9 10 12 12 12 14 14 14 12 11 11 12 12 13 13 13 12 13 16 18 19 20 19 18 18 19 21 23 25 25 25 26 27 28 27 26 28 29 31 32 32 32 32 33 33
22 23 22 20 19 17 15 12 11 11 10 10 10 11 12 11 10 9 8 9 9 9 9 9 8 8 8 9 10 11 13 13 12 12 14 14 12 10 11 12 13 12 11 11 12 12 14 16 18 19 20 20 19 20 21 20 22 24 25 26 26 25 26 26 27 29 30 30 31 31 32 33 33 32
22 22 20 18 16 14 13 12 11 11 11 11 12 13 12 11 10 9 9 10 11 11 11 11 11 11 10 11 13 13 12 11 11 12 12 12 10 10 12 14 14 13 12 12 12 13 14 15 17 19 20 20 20 20 20 19 21 24 26 26 24 23 24 27 28 29 30 29 30 31 33 34 34 33
21 20 18 17 15 14 14 14 13 12 12 13 13 13 12 10 10 10 11 11 13 13 13 14 13 12 12 13 12 10 9 10 10 10 10 10 10 10 11 13 14 14 15 15 14 13 13 14 16 18 20 20 20 21 20 20 21 23 24 24 24 23 25 27 27 28 30 29 30 32 33 34 35 34
20 19 18 17 17 16 16 16 15 14 14 14 14 13 12 12 12 12 13 14 15 15 15 15 15 14 12 11 9 8 9 11 10 9 9 9 10 10 10 11 13 14 16 18 18 16 15 15 16 18 19 19 21 21 19 19 21 22 22 22 23 24 26 26 26 28 29 29 30 33 35 36 35 33
20 20 19 18 18 18 18 17 16 15 15 15 14 14 14 14 14 14 15 16 16 16 16 16 15 13 10 8 7 8 11 11 10 8 8 9 9 9 10 11 13 15 17 19 19 18 18 19 19 19 20 21 21 21 19 17 19 23 23 21 20 22 25 26 27 28 29 29 30 31 34 37 36 33
21 22 21 20 19 18 18 17 15 14 14 15 14 14 15 15 16 17 18 18 18 18 17 16 14 11 9 8 9 10 11 10 9 8 8 8 8 8 10 12 14 16 17 19 19 19 20 21 22 22 22 23 22 21 20 19 18 22 25 23 21 21 24 26 27 28 30 30 30 29 30 34 36 34
23 22 21 21 20 18 16 14 13 13 14 15 15 14 14 15 17 18 19 19 19 18 16 14 12 11 9 10 10 10 10 9 9 8 8 7 8 9 11 13 14 16 17 17 18 19 20 22 23 20 17 15 12 11 17 22 21 20 22 23 22 23 25 27 28 29 31 31 29 27 28 31 37 39
22 22 21 20 19 17 15 13 12 13 14 14 14 14 15 16 17 17 17 16 16 14 12 12 12 10 10 10 10 9 9 9 9 8 6 7 8 10 12 13 14 15 16 17 18 19 20 22 23 20 13 8 5 5 14 24 26 22 18 19 21 24 26 27 27 29 31 31 29 28 28 32 38 42
22 21 21 19 18 16 14 13 13 13 13 12 12 13 14 14 13 12 12 13 12 12 12 12 11 10 9 10 10 10 9 8 7 6 5 7 9 11 12 13 14 15 16 17 18 20 20 22 24 22 14 7 4 5 10 19 26 27 23 20 22 25 26 26 26 28 30 31 31 30 29 31 37 41
23 22 21 19 17 15 14 13 13 12 12 12 12 11 10 8 8 8 9 10 11 12 12 11 10 9 10 11 11 10 8 7 5 5 6 8 9 10 11 13 14 15 16 18 19 21 22 22 24 24 21 15 13 14 16 20 24 28 28 24 22 23 24 24 25 27 29 31 32 32 33 34 36 37
23 22 21 19 17 15 14 13 12 12 12 11 10 9 8 8 8 9 9 11 12 12 11 10 10 10 11 11 10 8 6 5 4 5 7 8 9 9 11 12 14 14 15 18 20 21 23 24 25 25 25 21 19 19 20 20 23 27 29 26 23 23 24 24 25 27 29 31 32 32 32 32 34 36
24 22 20 18 16 15 14 14 14 14 14 12 11 9 9 9 10 10 11 12 12 12 10 10 11 10 10 9 8 6 5 5 4 5 7 8 8 9 10 12 13 14 15 17 19 21 23 24 25 24 21 19 17 17 15 13 16 23 28 28 26 26 25 25 25 25 27 30 31 30 29 30 32 34
25 23 20 17 16 16 16 16 16 16 15 13 12 12 12 12 12 12 13 13 13 12 11 11 11 10 9 9 8 6 6 6 5 6 7 8 8 9 10 12 13 14 15 17 19 21 22 23 23 21 17 16 17 14 11 10 14 21 26 28 28 28 26 26 26 25 25 27 27 26 27 29 27 23
24 22 20 18 17 18 18 17 17 17 16 15 14 14 14 14 15 15 15 15 13 12 12 13 13 11 10 10 9 7 7 6 6 7 7 8 8 9 11 12 13 14 15 17 19 22 22 21 22 20 16 15 16 14 12 15 18 21 23 25 28 30 30 29 29 29 28 27 25 24 25 26 24 20
23 22 21 20 19 18 18 18 18 18 17 16 16 16 16 16 17 17 16 14 12 12 13 14 13 12 12 12 11 9 7 6 6 7 8 8 9 9 11 12 13 14 16 18 20 22 21 20 20 18 15 15 16 15 15 17 18 19 21 23 26 29 31 31 31 32 32 30 28 26 26 27 27 28
21 20 21 22 21 19 18 19 19 18 17 17 17 17 17 17 17 17 16 14 12 12 13 14 13 12 12 12 11 10 8 7 7 8 9 9 9 9 10 12 13 15 16 17 19 21 21 20 19 17 14 14 15 15 15 15 16 18 20 22 24 27 29 29 29 30 31 31 31 29 28 29 30 31
Wind_Direction
225 223 224 225 228 232 235 242 246 239 235 234 229 221 211 200 186 175 240 260 242 233 237 239 239 240 247 257 260 260 262 263 265 265 267 275 285 290 294 294 295 296 295 295 294 292 292 295 298 301 302 303 303 303 302 301 300 299 298 298 298 298 298 297 296 295 294 293 292 293 295 297 299 301
229 226 226 227 228 229 233 241 245 240 235 230 227 228 226 219 209 193 196 243 242 233 233 232 229 230 235 245 256 257 257 260 266 268 270 276 282 286 289 291 294 295 295 296 296 295 294 294 295 297 297 298 299 300 300 299 298 297 296 295 295 294 293 293 293 294 294 294 294 294 294 295 297 298
231 229 229 230 229 229 234 238 238 238 234 230 228 228 226 226 228 221 207 224 247 234 228 228 227 229 237 248 257 257 258 261 265 269 273 278 283 290 295 299 301 301 299 298 298 299 299 298 299 300 301 302 301 300 299 298 297 296 295 294 293 291 290 290 291 292 293 293 293 294 293 294 294 295
232 231 230 231 231 231 234 233 232 236 236 232 230 230 229 229 234 235 222 219 245 244 236 234 233 238 254 264 264 263 266 269 273 278 284 286 289 294 299 302 304 304 303 302 301 301 302 304 305 306 307 308 307 305 302 300 298 297 297 296 294 293 292 292 291 291 292 292 293 293 293 293 293 294
232 233 232 233 232 232 235 236 237 240 238 234 233 234 234 233 233 235 230 228 243 251 248 250 256 260 269 275 275 278 281 280 284 290 292 292 293 296 297 298 299 301 306 307 307 305 303 302 302 303 305 306 305 304 301 298 297 296 297 297 297 297 295 293 292 291 290 289 290 290 291 292 293 294
232 233 234 233 233 232 235 240 242 241 236 236 238 235 235 236 235 237 238 235 238 245 250 258 266 270 274 279 284 288 288 288 291 292 291 289 290 294 296 297 297 301 306 308 309 309 306 303 301 300 301 303 303 303 300 297 296 296 297 297 296 295 293 292 291 290 289 288 287 286 286 287 289 290
230 232 233 234 232 231 233 237 240 239 236 236 237 235 236 238 238 240 244 242 240 245 255 263 269 273 278 284 289 292 289 288 289 290 289 286 284 288 293 296 301 308 312 309 306 305 302 299 298 297 298 300 302 302 301 299 298 297 296 295 293 292 290 289 289 288 289 288 288 287 285 285 285 285
230 230 232 233 233 230 230 232 234 232 230 231 232 234 239 239 240 244 247 249 250 254 260 266 270 275 280 285 289 289 287 287 287 289 291 290 288 290 291 293 297 304 309 309 305 301 298 294 293 293 295 297 299 300 300 300 299 298 295 292 290 289 288 287 286 285 284 284 286 287 287 287 285 283
233 232 232 233 233 231 229 229 230 227 225 227 231 236 239 240 242 245 246 248 252 253 257 265 270 273 277 281 284 283 283 285 287 287 291 293 292 291 292 293 294 296 301 306 307 304 299 294 292 294 297 298 299 299 299 299 298 297 296 294 292 291 289 288 287 285 284 283 282 284 285 287 287 285
236 235 234 234 233 232 231 229 228 228 228 231 234 236 238 238 240 243 244 246 250 252 257 265 269 271 272 275 278 279 279 281 284 289 295 298 296 292 293 295 296 298 301 306 309 308 304 301 301 304 306 305 303 301 299 297 294 291 291 292 292 292 291 290 289 288 286 285 283 283 284 285 286 285
239 238 235 234 234 234 234 233 231 231 231 233 234 233 233 234 237 241 243 245 248 252 257 260 263 267 269 270 273 276 275 274 278 288 296 299 298 295 294 294 295 299 302 305 309 309 309 310 312 312 310 307 303 302 300 298 296 295 294 294 294 293 291 289 288 287 287 287 286 285 284 283 281 280
239 238 236 235 236 236 237 236 235 234 234 232 230 228 230 234 237 240 244 246 248 251 255 258 261 264 267 269 272 274 273 272 281 290 292 291 293 296 293 290 293 297 302 305 307 306 308 313 314 313 311 309 308 307 306 304 304 307 307 306 304 301 297 293 290 288 286 286 286 286 284 281 280 278
238 237 236 235 236 238 240 239 238 238 238 234 229 229 233 236 236 239 243 245 248 250 250 253 257 260 266 271 273 272 273 279 288 294 289 281 284 289 287 285 289 293 297 301 303 305 311 313 313 313 313 314 315 313 309 307 308 311 312 308 305 303 302 299 295 291 289 288 288 288 286 284 282 282
237 236 235 235 237 241 241 237 235 236 237 235 235 237 239 235 233 234 239 244 248 248 245 246 251 255 263 270 273 274 280 287 289 290 286 281 281 283 282 283 287 291 294 296 298 304 312 311 310 313 316 316 317 314 308 305 305 308 307 305 304 303 303 302 299 296 294 293 293 292 290 289 288 286
236 235 233 233 236 240 238 233 232 234 236 235 236 237 235 233 233 234 238 244 246 245 243 246 250 252 259 269 275 281 289 293 292 291 288 283 280 279 276 275 280 289 293 291 292 302 310 311 310 314 315 315 315 310 304 302 303 306 307 307 305 303 302 302 300 297 295 293 293 292 292 293 293 292
236 237 233 232 235 236 233 231 233 235 236 234 231 230 230 233 238 242 246 250 250 250 249 251 255 257 261 272 281 287 293 296 296 295 290 284 280 276 269 264 272 286 293 290 289 298 307 311 312 313 313 313 311 306 302 301 302 305 307 305 303 301 301 301 299 296 295 293 292 291 290 290 290 289
236 238 233 230 232 231 228 231 235 233 228 224 223 226 230 235 240 245 251 255 256 258 259 259 265 270 271 277 286 292 297 297 294 291 288 287 284 278 271 271 278 289 294 292 289 293 301 309 310 309 311 311 307 301 299 297 297 299 299 297 296 296 296 297 296 295 295 294 293 292 290 288 286 284
235 236 232 229 229 226 224 228 230 226 220 217 219 223 228 235 240 245 252 257 260 263 266 267 274 281 284 285 288 292 294 292 289 287 288 289 286 280 277 278 283 289 294 294 288 283 298 309 308 306 310 310 304 300 297 295 296 296 295 294 295 296 296 296 296 295 295 295 294 292 290 287 285 282
237 235 231 228 224 221 224 227 224 220 218 217 217 220 229 238 244 249 257 265 271 276 277 277 283 289 290 287 285 285 285 285 284 283 285 285 283 281 280 281 286 292 297 300 290 279 299 311 304 302 309 309 304 303 301 299 300 298 298 301 304 306 305 303 300 299 298 298 296 294 291 288 285 282
237 233 230 225 219 219 227 227 221 220 221 218 217 223 232 240 247 256 266 275 284 289 291 292 291 290 288 285 282 284 286 285 286 283 281 281 279 281 285 288 295 302 306 308 298 279 292 306 298 296 304 306 303 303 303 303 304 304 309 315 316 314 312 309 308 307 306 304 302 298 294 290 288 285
235 234 230 221 215 224 230 226 221 223 223 219 221 226 233 240 251 263 272 279 284 288 293 295 290 284 284 281 280 285 289 289 289 285 283 284 282 283 287 289 298 309 314 314 303 274 278 296 294 294 302 305 303 304 306 308 311 315 317 317 316 314 313 313 315 315 313 312 308 304 301 296 292 289
234 234 226 216 218 232 233 226 222 221 219 218 222 227 233 244 255 264 273 281 286 294 300 293 276 270 279 286 289 291 290 288 285 281 279 279 275 276 276 276 289 304 309 311 302 268 276 295 297 297 301 301 299 301 306 310 314 318 319 317 316 316 316 316 318 317 317 316 313 311 308 303 299 295
230 230 222 215 223 233 228 220 217 216 217 221 223 228 235 244 254 264 276 285 292 298 295 278 269 278 289 295 299 298 294 290 284 277 273 269 266 276 285 287 290 291 300 312 307 282 285 298 301 298 297 293 297 301 302 305 311 316 318 318 318 320 319 319 318 318 318 317 316 314 311 307 304 301
224 224 216 212 219 222 217 214 215 215 218 221 222 228 236 244 256 267 275 282 289 292 285 276 284 293 298 301 302 298 293 289 279 270 274 295 307 308 306 305 297 282 293 316 315 296 292 297 298 295 289 275 284 298 301 304 311 317 320 318 318 319 319 319 319 318 318 317 316 314 312 310 308 306
220 216 207 207 213 213 210 214 215 212 214 218 223 232 241 250 262 268 270 276 281 283 286 290 296 302 307 310 305 293 282 264 252 275 292 304 312 314 313 310 299 291 300 316 315 301 295 293 293 293 289 277 273 288 299 306 314 320 320 316 316 317 318 318 318 318 318 317 316 314 312 311 310 307
215 210 203 205 209 207 204 206 205 205 212 221 229 239 247 255 263 264 264 267 268 275 285 295 306 319 328 326 295 245 241 256 277 289 295 303 312 316 315 310 301 300 307 314 312 304 296 293 294 293 288 284 285 289 295 303 313 319 318 314 315 317 317 317 316 316 317 316 315 315 313 312 310 307
211 204 201 204 204 201 197 196 199 208 219 228 234 242 250 254 255 255 257 254 255 270 283 290 306 330 335 315 272 263 279 285 292 298 300 303 308 311 310 307 304 307 311 314 315 311 302 296 300 299 291 289 291 293 293 297 307 313 315 316 319 319 318 316 313 313 315 314 314 315 313 312 310 308
208 200 200 201 198 194 193 195 204 216 222 228 237 243 245 245 242 241 243 242 248 259 259 250 255 275 290 286 281 283 288 289 293 297 297 298 303 306 305 304 305 311 315 316 320 322 315 307 311 314 306 297 290 287 290 294 301 307 311 314 317 318 317 316 313 313 315 314 313 312 311 309 309 308
205 203 201 195 190 191 193 198 208 214 218 228 236 236 231 230 229 229 228 230 235 237 231 232 244 258 272 278 281 288 292 293 294 295 294 296 301 303 302 305 308 312 319 321 325 329 324 316 318 319 316 309 298 289 290 293 298 307 310 308 308 313 317 317 315 314 314 312 311 310 308 306 306 304
200 198 194 188 187 189 193 198 204 210 221 229 227 220 219 220 221 220 219 220 224 225 227 235 247 260 272 282 288 291 293 293 294 293 293 297 302 305 308 313 317 320 324 327 328 325 318 317 321 322 322 320 313 305 303 299 297 305 311 307 304 309 317 319 317 314 312 310 309 308 306 304 303 301
190 187 183 183 185 187 191 198 205 212 219 219 213 211 214 218 218 215 216 222 226 228 234 244 253 263 277 287 292 292 289 288 289 290 293 298 305 313 319 323 327 330 331 331 328 323 318 320 325 327 327 324 320 319 318 309 298 301 309 311 308 307 312 315 315 313 312 310 306 305 304 303 302 300
181 180 179 180 184 189 194 198 203 209 211 208 207 210 215 219 218 216 221 228 231 235 243 250 257 269 282 288 290 289 285 284 287 289 292 297 305 317 326 329 331 334 334 333 332 328 325 326 326 328 330 327 322 322 321 312 305 303 306 311 313 309 310 313 312 312 314 311 305 303 303 302 301 300
177 177 180 182 185 190 194 197 202 207 208 206 209 215 219 220 220 223 230 235 239 244 249 255 264 274 280 279 279 282 283 285 286 285 288 298 310 323 332 333 333 333 331 332 336 335 332 330 327 327 329 327 325 324 316 305 306 310 309 309 311 311 313 316 314 313 314 310 305 304 303 302 301 301
179 178 181 183 186 190 194 198 203 207 210 212 216 222 225 227 229 232 238 243 249 252 255 261 267 269 265 261 266 272 276 277 277 278 290 307 319 331 338 335 334 334 331 332 337 338 337 335 333 329 328 327 327 327 322 308 306 312 314 310 308 310 315 318 317 314 313 309 305 302 301 301 302 302
178 179 180 183 189 194 198 203 209 212 214 218 226 233 238 240 241 243 246 250 253 255 259 261 257 249 243 249 261 266 267 270 276 284 299 314 325 336 340 333 331 333 333 334 337 339 339 339 337 333 331 332 331 330 331 327 317 315 316 314 313 315 317 319 319 316 313 311 308 303 300 300 302 304
180 182 185 189 194 199 203 208 213 216 219 226 236 245 252 255 255 254 254 255 256 256 254 246 234 227 233 247 257 262 265 274 288 298 308 321 330 332 331 329 330 333 335 335 338 339 338 337 337 334 330 332 332 323 324 329 328 318 310 308 313 320 320 319 319 316 312 312 310 305 302 301 302 306
185 189 194 199 202 204 207 212 216 220 227 235 245 256 263 267 268 267 264 260 256 247 233 221 217 222 237 250 258 263 271 282 293 301 311 323 329 329 328 329 332 335 336 336 338 338 336 334 334 333 327 324 323 302 309 320 328 326 313 303 310 320 321 318 317 314 313 313 311 307 303 300 300 305
197 198 201 205 206 208 212 215 219 223 231 242 253 261 265 267 267 264 257 248 236 218 205 206 215 230 246 257 261 264 270 278 284 294 310 323 327 330 331 332 335 337 336 336 335 334 333 332 331 331 327 313 295 294 302 311 319 326 325 316 314 320 323 320 315 313 313 314 313 310 306 300 298 303
207 206 206 207 208 211 213 213 216 224 233 241 246 247 247 245 240 235 228 216 204 198 199 208 226 247 257 258 257 257 262 265 271 291 314 324 327 332 335 336 337 337 334 334 334 332 332 333 332 331 326 311 296 297 297 295 303 317 326 326 323 324 325 323 318 316 316 316 316 314 311 307 305 307
209 210 210 210 210 210 208 206 212 219 221 220 219 217 220 227 226 220 209 198 195 200 210 226 244 253 253 249 245 243 245 250 268 300 317 322 325 332 337 337 337 336 333 331 331 330 331 333 334 331 326 318 312 313 311 303 305 317 326 330 334 334 331 328 325 321 318 319 319 316 314 314 314 315
206 208 210 212 210 204 198 198 203 204 201 200 202 206 216 221 218 211 206 203 206 215 227 238 241 237 232 228 224 224 235 251 276 302 314 318 322 328 334 335 336 336 332 326 324 327 330 333 336 335 331 329 333 335 330 318 313 318 324 330 336 338 337 336 334 328 323 323 322 317 316 318 319 318
205 206 207 207 202 195 191 193 196 197 197 199 203 204 205 205 204 205 205 207 213 224 231 228 222 217 214 214 216 226 244 256 277 297 304 311 319 324 330 333 334 335 330 323 323 329 332 334 339 340 337 339 346 344 330 315 312 315 321 328 333 338 341 343 342 339 334 330 326 320 318 321 321 319
205 206 204 198 193 191 192 195 198 199 200 202 202 201 198 197 198 201 204 207 214 223 224 219 216 218 219 215 217 229 239 250 274 292 297 305 314 320 325 330 333 333 329 326 328 332 335 337 341 342 338 340 346 341 323 316 316 316 320 325 329 335 342 346 348 347 343 339 335 330 324 322 319 319
207 205 200 193 190 192 196 198 200 202 202 202 201 201 201 202 203 204 206 210 214 217 218 218 220 223 220 216 218 226 234 248 273 288 294 301 307 313 320 327 330 330 329 329 332 335 338 340 343 343 337 335 340 337 326 320 319 320 324 328 330 334 340 344 345 345 343 343 343 340 334 329 326 323
207 203 198 194 194 197 200 201 202 203 203 203 203 204 206 208 209 208 207 208 210 212 215 219 223 225 222 220 220 224 233 250 272 286 294 297 300 307 316 324 327 327 329 332 333 335 338 341 343 342 333 330 336 338 331 324 323 324 328 331 333 336 339 340 340 338 336 337 342 343 339 337 334 331